| time (UTC) | temp F | wind direction | speed MPH | gust MPH | rain 1hr in | rain 24hr in | rain mn in | humidity % | barometer mb |
| 20260504234557 | 50 | 41 | 0.0 | 0.0 | 0.00 | 0.01 | 0.01 | 88 | 4082.9 |
| 20260504234054 | 50 | 12 | 1.0 | 2.0 | 0.00 | 0.01 | 0.01 | 87 | 4082.6 |
| 20260504233549 | 50 | 86 | 1.0 | 2.0 | 0.00 | 0.01 | 0.01 | 86 | 4082.2 |
| 20260504233046 | 51 | 358 | 1.0 | 1.0 | 0.00 | 0.01 | 0.01 | 87 | 4082.2 |
| 20260504232544 | 51 | 2 | 0.0 | 0.0 | 0.00 | 0.01 | 0.01 | 86 | 4082.2 |
| 20260504232041 | 51 | 21 | 1.0 | 1.0 | 0.00 | 0.01 | 0.01 | 86 | 4081.9 |
| 20260504231538 | 51 | 37 | 1.0 | 1.0 | 0.00 | 0.01 | 0.01 | 85 | 4081.9 |
| 20260504231034 | 51 | 46 | 1.0 | 2.0 | 0.00 | 0.01 | 0.01 | 85 | 4081.9 |
| 20260504230530 | 52 | 16 | 3.0 | 3.0 | 0.00 | 0.01 | 0.01 | 85 | 4081.9 |
| 20260504230029 | 52 | 23 | 3.0 | 3.0 | 0.00 | 0.01 | 0.01 | 84 | 4081.1 |
| 20260504225526 | 52 | 28 | 3.0 | 3.0 | 0.00 | 0.01 | 0.01 | 83 | 4081.1 |
| 20260504225023 | 52 | 21 | 4.0 | 5.0 | 0.00 | 0.01 | 0.01 | 83 | 4081.1 |
| 20260504224520 | 52 | 359 | 2.0 | 2.0 | 0.00 | 0.01 | 0.01 | 83 | 4080.8 |
| 20260504224017 | 52 | 31 | 2.0 | 3.0 | 0.00 | 0.01 | 0.01 | 83 | 4080.8 |
| 20260504223513 | 51 | 36 | 3.0 | 3.0 | 0.00 | 0.01 | 0.01 | 84 | 4080.8 |
| 20260504223009 | 48 | 7 | 2.0 | 2.0 | 0.00 | 0.01 | 0.01 | 89 | 4080.8 |
| 20260504222506 | 47 | 275 | 1.0 | 2.0 | 0.00 | 0.01 | 0.01 | 91 | 4080.8 |
| 20260504222004 | 47 | 12 | 0.0 | 0.0 | 0.00 | 0.01 | 0.01 | 89 | 4080.8 |
| 20260504221501 | 48 | 196 | 1.0 | 2.0 | 0.00 | 0.01 | 0.01 | 89 | 4080.4 |
| 20260504220958 | 48 | 42 | 2.0 | 3.0 | 0.00 | 0.01 | 0.01 | 87 | 4080.4 |
| 20260504220454 | 49 | 325 | 2.0 | 6.0 | 0.00 | 0.01 | 0.01 | 86 | 4080.1 |
| 20260504215951 | 49 | 82 | 1.0 | 2.0 | 0.00 | 0.01 | 0.01 | 86 | 4080.1 |
| 20260504215448 | 49 | 77 | 0.0 | 0.0 | 0.00 | 0.01 | 0.01 | 84 | 4080.1 |
| 20260504214944 | 50 | 91 | 0.0 | 1.0 | 0.00 | 0.01 | 0.01 | 82 | 4079.8 |
| 20260504214441 | 51 | 346 | 2.0 | 3.0 | 0.00 | 0.01 | 0.01 | 82 | 4079.8 |
| 20260504213937 | 51 | 41 | 3.0 | 3.0 | 0.00 | 0.01 | 0.01 | 81 | 4079.8 |
| 20260504213433 | 51 | 82 | 1.0 | 2.0 | 0.00 | 0.01 | 0.01 | 81 | 4079.8 |
| 20260504212931 | 52 | 82 | 0.0 | 1.0 | 0.00 | 0.01 | 0.01 | 79 | 4079.8 |
| 20260504212427 | 52 | 351 | 3.0 | 5.0 | 0.00 | 0.01 | 0.01 | 77 | 4079.8 |
| 20260504211925 | 53 | 86 | 2.0 | 2.0 | 0.00 | 0.01 | 0.01 | 76 | 4079.4 |
| 20260504211421 | 52 | 85 | 0.0 | 1.0 | 0.00 | 0.01 | 0.01 | 78 | 4079.8 |
| 20260504210918 | 53 | 116 | 0.0 | 0.0 | 0.00 | 0.01 | 0.01 | 76 | 4079.8 |
| 20260504210415 | 54 | 5 | 3.0 | 3.0 | 0.00 | 0.01 | 0.01 | 74 | 4079.4 |
| 20260504205912 | 53 | 95 | 1.0 | 2.0 | 0.00 | 0.01 | 0.01 | 73 | 4079.4 |
| 20260504205410 | 54 | 34 | 1.0 | 2.0 | 0.00 | 0.01 | 0.01 | 72 | 4079.4 |
| 20260504204908 | 59 | 218 | 3.0 | 5.0 | 0.00 | 0.01 | 0.01 | 67 | 4079.8 |
| 20260504204406 | 62 | 337 | 5.0 | 7.0 | 0.00 | 0.01 | 0.01 | 59 | 4079.4 |
| 20260504203905 | 62 | 243 | 17.0 | 18.0 | 0.00 | 0.01 | 0.01 | 57 | 4078.7 |
| 20260504203402 | 61 | 235 | 17.0 | 18.0 | 0.00 | 0.01 | 0.01 | 57 | 4078.7 |
| 20260504202857 | 62 | 237 | 18.0 | 20.0 | 0.00 | 0.01 | 0.01 | 57 | 4078.7 |
| 20260504202355 | 61 | 236 | 26.0 | 31.0 | 0.00 | 0.01 | 0.01 | 57 | 4078.7 |
| 20260504201851 | 62 | 235 | 25.0 | 29.0 | 0.00 | 0.01 | 0.01 | 55 | 4078.4 |
| 20260504201349 | 61 | 241 | 20.0 | 22.0 | 0.00 | 0.01 | 0.01 | 58 | 4078.7 |
| 20260504200846 | 60 | 245 | 22.0 | 29.0 | 0.00 | 0.01 | 0.01 | 58 | 4079.1 |
| 20260504200343 | 61 | 237 | 17.0 | 18.0 | 0.00 | 0.01 | 0.01 | 56 | 4079.1 |
| 20260504195839 | 61 | 235 | 17.0 | 18.0 | 0.00 | 0.01 | 0.01 | 57 | 4079.1 |
| 20260504195335 | 61 | 228 | 18.0 | 21.0 | 0.00 | 0.01 | 0.01 | 58 | 4078.7 |
| 20260504194832 | 62 | 234 | 18.0 | 21.0 | 0.00 | 0.01 | 0.01 | 56 | 4079.1 |
| 20260504194328 | 62 | 235 | 16.0 | 17.0 | 0.00 | 0.01 | 0.01 | 56 | 4079.1 |
| 20260504193824 | 62 | 231 | 26.0 | 27.0 | 0.00 | 0.01 | 0.01 | 54 | 4079.1 |
| 20260504193321 | 61 | 233 | 19.0 | 23.0 | 0.00 | 0.01 | 0.01 | 58 | 4078.7 |
| 20260504192820 | 62 | 230 | 17.0 | 18.0 | 0.00 | 0.01 | 0.01 | 59 | 4079.1 |
| 20260504192317 | 62 | 249 | 25.0 | 27.0 | 0.00 | 0.01 | 0.01 | 55 | 4079.1 |
| 20260504191816 | 63 | 235 | 25.0 | 26.0 | 0.00 | 0.01 | 0.01 | 52 | 4079.1 |
| 20260504191313 | 62 | 247 | 22.0 | 24.0 | 0.00 | 0.01 | 0.01 | 54 | 4079.4 |
| 20260504190808 | 64 | 243 | 21.0 | 23.0 | 0.00 | 0.01 | 0.01 | 51 | 4079.1 |
| 20260504190305 | 61 | 239 | 19.0 | 23.0 | 0.00 | 0.01 | 0.01 | 57 | 4079.1 |
| 20260504185801 | 62 | 247 | 21.0 | 22.0 | 0.00 | 0.01 | 0.01 | 55 | 4079.1 |
| 20260504185258 | 62 | 239 | 24.0 | 30.0 | 0.00 | 0.01 | 0.01 | 52 | 4079.1 |
| 20260504184754 | 62 | 244 | 18.0 | 20.0 | 0.00 | 0.01 | 0.01 | 57 | 4079.1 |
| 20260504184250 | 64 | 229 | 24.0 | 27.0 | 0.00 | 0.01 | 0.01 | 52 | 4079.1 |
| 20260504183746 | 62 | 225 | 27.0 | 30.0 | 0.00 | 0.01 | 0.01 | 50 | 4079.1 |
| 20260504183243 | 63 | 239 | 16.0 | 23.0 | 0.00 | 0.01 | 0.01 | 56 | 4079.1 |
| 20260504182741 | 61 | 240 | 15.0 | 17.0 | 0.00 | 0.01 | 0.01 | 57 | 4079.1 |
| 20260504182238 | 62 | 243 | 21.0 | 23.0 | 0.00 | 0.01 | 0.01 | 54 | 4079.1 |
| 20260504181736 | 63 | 229 | 18.0 | 20.0 | 0.00 | 0.01 | 0.01 | 55 | 4079.1 |
| 20260504181233 | 62 | 230 | 21.0 | 23.0 | 0.00 | 0.01 | 0.01 | 53 | 4079.1 |
| 20260504180732 | 63 | 229 | 18.0 | 20.0 | 0.00 | 0.01 | 0.01 | 54 | 4079.1 |
| 20260504180231 | 64 | 228 | 23.0 | 25.0 | 0.00 | 0.01 | 0.01 | 49 | 4078.4 |
| 20260504175728 | 64 | 229 | 26.0 | 30.0 | 0.00 | 0.01 | 0.01 | 50 | 4078.7 |
| 20260504175224 | 63 | 212 | 19.0 | 24.0 | 0.00 | 0.01 | 0.01 | 52 | 4078.7 |
| 20260504174722 | 63 | 200 | 18.0 | 20.0 | 0.00 | 0.01 | 0.01 | 55 | 4078.7 |
| 20260504174220 | 63 | 230 | 30.0 | 33.0 | 0.00 | 0.01 | 0.01 | 51 | 4079.1 |
| 20260504173716 | 62 | 234 | 21.0 | 25.0 | 0.00 | 0.01 | 0.01 | 54 | 4079.4 |
| 20260504173213 | 61 | 241 | 22.0 | 25.0 | 0.00 | 0.01 | 0.01 | 56 | 4079.4 |
| 20260504172710 | 62 | 233 | 19.0 | 22.0 | 0.00 | 0.01 | 0.01 | 56 | 4079.4 |
| 20260504172206 | 61 | 227 | 24.0 | 26.0 | 0.00 | 0.01 | 0.01 | 51 | 4079.8 |
| 20260504171703 | 61 | 226 | 20.0 | 22.0 | 0.00 | 0.01 | 0.01 | 56 | 4079.8 |
| 20260504171200 | 60 | 215 | 15.0 | 17.0 | 0.00 | 0.01 | 0.01 | 59 | 4080.1 |
| 20260504170656 | 60 | 222 | 15.0 | 16.0 | 0.00 | 0.01 | 0.01 | 59 | 4080.1 |
| 20260504170154 | 60 | 228 | 16.0 | 18.0 | 0.00 | 0.01 | 0.01 | 58 | 4080.1 |
| 20260504160112 | 56 | 221 | 17.0 | 18.0 | 0.00 | 0.01 | 0.01 | 64 | 4081.1 |
| 20260504151039 | 52 | 164 | 6.0 | 7.0 | 0.00 | 0.01 | 0.01 | 83 | 4082.2 |
| 20260504150536 | 53 | 146 | 6.0 | 8.0 | 0.00 | 0.01 | 0.01 | 85 | 4082.6 |
| 20260504141002 | 49 | 142 | 6.0 | 7.0 | 0.00 | 0.01 | 0.01 | 94 | 4082.9 |
| 20260504140459 | 49 | 148 | 5.0 | 6.0 | 0.00 | 0.01 | 0.01 | 94 | 4083.2 |
| 20260504130424 | 45 | 114 | 3.0 | 3.0 | 0.00 | 0.01 | 0.01 | 99 | 4084.3 |
| 20260504110310 | 39 | 123 | 0.0 | 0.0 | 0.00 | 0.01 | 0.01 | 99 | 4085.6 |
| 20260504100229 | 39 | 126 | 0.0 | 0.0 | 0.00 | 0.01 | 0.01 | 99 | 4086.0 |
| 20260504081622 | 36 | 144 | 0.0 | 0.0 | 0.00 | 0.00 | 0.00 | 99 | 4087.3 |
| 20260504081117 | 36 | 144 | 0.0 | 0.0 | 0.00 | 0.00 | 0.00 | 99 | 4087.3 |
| 20260504080615 | 36 | 144 | 0.0 | 0.0 | 0.00 | 0.00 | 0.00 | 99 | 4087.3 |
| 20260504080111 | 37 | 144 | 0.0 | 0.0 | 0.00 | 0.00 | 0.00 | 99 | 4087.6 |
| 20260504050427 | 39 | 178 | 0.0 | 0.0 | 0.00 | 0.00 | 0.00 | 99 | 4089.1 |
| 20260504045924 | 39 | 179 | 0.0 | 0.0 | 0.00 | 0.00 | 0.00 | 99 | 4089.1 |
| 20260504045420 | 39 | 179 | 0.0 | 0.0 | 0.00 | 0.00 | 0.00 | 99 | 4089.1 |
| 20260504044916 | 39 | 179 | 0.0 | 0.0 | 0.00 | 0.00 | 0.00 | 99 | 4088.7 |
| 20260504044414 | 38 | 179 | 0.0 | 0.0 | 0.00 | 0.00 | 0.00 | 99 | 4088.7 |
| 20260504043911 | 39 | 179 | 0.0 | 0.0 | 0.00 | 0.00 | 0.00 | 99 | 4089.1 |
| 20260504043408 | 39 | 179 | 0.0 | 0.0 | 0.00 | 0.00 | 0.00 | 99 | 4088.7 |
| 20260504042906 | 39 | 179 | 0.0 | 0.0 | 0.00 | 0.00 | 0.00 | 99 | 4088.7 |
| 20260504042402 | 39 | 179 | 0.0 | 0.0 | 0.00 | 0.00 | 0.00 | 99 | 4089.1 |
| 20260504041858 | 39 | 179 | 0.0 | 0.0 | 0.00 | 0.00 | 0.00 | 99 | 4089.1 |
| 20260504041354 | 39 | 179 | 0.0 | 0.0 | 0.00 | 0.00 | 0.00 | 99 | 4089.1 |
| 20260504040850 | 39 | 179 | 0.0 | 0.0 | 0.00 | 0.00 | 0.00 | 99 | 4089.1 |
| 20260504040348 | 39 | 179 | 0.0 | 0.0 | 0.00 | 0.00 | 0.00 | 99 | 4089.1 |
| 20260504035844 | 38 | 179 | 0.0 | 0.0 | 0.00 | 0.36 | 0.36 | 99 | 4089.4 |
| 20260504035342 | 39 | 179 | 0.0 | 0.0 | 0.00 | 0.36 | 0.36 | 99 | 4089.4 |
| 20260504034838 | 39 | 179 | 0.0 | 0.0 | 0.00 | 0.36 | 0.36 | 99 | 4089.4 |
| 20260504034336 | 39 | 179 | 0.0 | 0.0 | 0.00 | 0.36 | 0.36 | 99 | 4089.1 |
| 20260504033833 | 39 | 179 | 0.0 | 0.0 | 0.00 | 0.36 | 0.36 | 99 | 4089.4 |
| 20260504033331 | 39 | 180 | 0.0 | 0.0 | 0.00 | 0.36 | 0.36 | 99 | 4089.4 |
| 20260504032827 | 40 | 180 | 0.0 | 0.0 | 0.00 | 0.36 | 0.36 | 99 | 4089.8 |
| 20260504032325 | 40 | 180 | 0.0 | 0.0 | 0.00 | 0.36 | 0.36 | 99 | 4089.8 |
| 20260504031821 | 40 | 181 | 0.0 | 0.0 | 0.00 | 0.36 | 0.36 | 99 | 4089.8 |
| 20260504031319 | 41 | 181 | 0.0 | 0.0 | 0.00 | 0.36 | 0.36 | 99 | 4089.8 |
| 20260504030815 | 41 | 116 | 0.0 | 0.0 | 0.00 | 0.36 | 0.36 | 99 | 4090.1 |
| 20260504030312 | 42 | 116 | 0.0 | 0.0 | 0.00 | 0.36 | 0.36 | 99 | 4089.8 |
| 20260504025808 | 42 | 116 | 0.0 | 0.0 | 0.00 | 0.36 | 0.36 | 99 | 4090.1 |
| 20260504025306 | 42 | 116 | 0.0 | 0.0 | 0.00 | 0.36 | 0.36 | 99 | 4090.1 |
| 20260504024801 | 42 | 116 | 0.0 | 0.0 | 0.00 | 0.36 | 0.36 | 99 | 4089.8 |
| 20260504024258 | 42 | 116 | 0.0 | 0.0 | 0.00 | 0.36 | 0.36 | 99 | 4090.1 |
| 20260504023755 | 42 | 116 | 0.0 | 0.0 | 0.00 | 0.36 | 0.36 | 99 | 4090.1 |
| 20260504023252 | 42 | 116 | 0.0 | 0.0 | 0.00 | 0.36 | 0.36 | 99 | 4090.1 |
| 20260504022747 | 42 | 116 | 0.0 | 0.0 | 0.00 | 0.36 | 0.36 | 99 | 4090.1 |
| 20260504022244 | 42 | 116 | 0.0 | 0.0 | 0.00 | 0.36 | 0.36 | 99 | 4090.1 |
| 20260504021741 | 42 | 116 | 0.0 | 0.0 | 0.00 | 0.36 | 0.36 | 99 | 4090.1 |
| 20260504021238 | 42 | 116 | 0.0 | 0.0 | 0.00 | 0.36 | 0.36 | 99 | 4090.1 |
| 20260504020735 | 42 | 121 | 0.0 | 0.0 | 0.00 | 0.36 | 0.36 | 99 | 4090.1 |
| 20260504020232 | 42 | 123 | 0.0 | 0.0 | 0.00 | 0.36 | 0.36 | 99 | 4090.1 |
| 20260504015728 | 42 | 121 | 0.0 | 0.0 | 0.00 | 0.36 | 0.36 | 99 | 4090.1 |
| 20260504015224 | 42 | 122 | 0.0 | 0.0 | 0.00 | 0.36 | 0.36 | 99 | 4089.8 |
| 20260504014720 | 42 | 122 | 0.0 | 0.0 | 0.00 | 0.36 | 0.36 | 99 | 4090.1 |
| 20260504014217 | 42 | 122 | 0.0 | 0.0 | 0.00 | 0.36 | 0.36 | 99 | 4089.8 |
| 20260504013715 | 42 | 122 | 0.0 | 0.0 | 0.00 | 0.36 | 0.36 | 99 | 4089.8 |
| 20260504013212 | 42 | 122 | 0.0 | 0.0 | 0.00 | 0.36 | 0.36 | 99 | 4089.8 |
| 20260504012709 | 42 | 122 | 0.0 | 0.0 | 0.00 | 0.36 | 0.36 | 99 | 4090.1 |
| 20260504012207 | 42 | 122 | 0.0 | 0.0 | 0.00 | 0.36 | 0.36 | 99 | 4089.8 |
| 20260504011703 | 42 | 122 | 0.0 | 0.0 | 0.00 | 0.36 | 0.36 | 99 | 4089.8 |
| 20260504011200 | 42 | 122 | 0.0 | 0.0 | 0.00 | 0.36 | 0.36 | 99 | 4089.8 |
| 20260504010655 | 42 | 123 | 0.0 | 0.0 | 0.00 | 0.36 | 0.36 | 99 | 4089.8 |
| 20260504010151 | 42 | 127 | 0.0 | 0.0 | 0.00 | 0.36 | 0.36 | 99 | 4089.8 |
| 20260504005648 | 43 | 128 | 0.0 | 0.0 | 0.00 | 0.36 | 0.36 | 99 | 4089.8 |
| 20260504005145 | 43 | 131 | 0.0 | 0.0 | 0.00 | 0.36 | 0.36 | 99 | 4089.8 |
| 20260504004643 | 43 | 131 | 0.0 | 0.0 | 0.00 | 0.36 | 0.36 | 99 | 4089.8 |
| 20260504004140 | 43 | 132 | 0.0 | 0.0 | 0.00 | 0.36 | 0.36 | 99 | 4089.4 |
| 20260504003636 | 43 | 130 | 0.0 | 0.0 | 0.00 | 0.36 | 0.36 | 99 | 4089.8 |
| 20260504003133 | 43 | 133 | 0.0 | 1.0 | 0.00 | 0.36 | 0.36 | 99 | 4089.8 |
| 20260504002630 | 43 | 124 | 0.0 | 0.0 | 0.00 | 0.36 | 0.36 | 99 | 4089.4 |
| 20260504002128 | 43 | 123 | 0.0 | 0.0 | 0.00 | 0.36 | 0.36 | 99 | 4089.4 |
| 20260504001625 | 42 | 139 | 2.0 | 2.0 | 0.00 | 0.36 | 0.36 | 99 | 4089.4 |
| 20260504001121 | 42 | 163 | 4.0 | 5.0 | 0.00 | 0.36 | 0.36 | 99 | 4089.4 |
| 20260504000619 | 42 | 156 | 3.0 | 3.0 | 0.00 | 0.36 | 0.36 | 99 | 4089.8 |
| 20260504000116 | 43 | 165 | 4.0 | 5.0 | 0.00 | 0.36 | 0.36 | 99 | 4089.8 |
| 20260503235614 | 43 | 166 | 5.0 | 5.0 | 0.03 | 0.36 | 0.36 | 99 | 4089.8 |
| 20260503235110 | 44 | 170 | 6.0 | 6.0 | 0.03 | 0.36 | 0.36 | 99 | 4089.8 |